User: anonymous   Login
Location: Caltech
(34.1382°N, 118.1253°W)
Time: 21:46:57
(UTC-07:00)
Language:

Cosmos 2322 - Orbit

View from above orbital plane
View from above orbital plane
View from above satellite
View from above satellite

Ground track
Ground track

The orbit data is extracted from the following two-line orbital elements,

1 23704U 95058A   16125.24113667 -.00000078  00000-0 -15976-4 0  9997
2 23704  70.9870 180.9169 0010785 338.8074  21.2599 14.13359291 58051
Epoch (UTC): 04 May 2016 05:47:14
Eccentricity: 0.0010785
inclination: 70.9870°
perigee height: 840 km
apogee height: 855 km
right ascension of ascending node: 180.9169°
argument of perigee: 338.8074°
revolutions per day: 14.13359291
mean anomaly at epoch: 21.2599°
orbit number at epoch: 5805

The dashed part of the orbit path shows where the satellite is in the earth's shadow,  

DLR